Flag for U.S.A. Weather past 2 weeks in Hialeah, Florida, U.S.A.

Now
83 °F

Clear.


Feels Like: 89 °F
Forecast: 81 / 91 °F
Wind: 9 mph from Southeast

Location: Opa Locka Airport

Current Time: Jul 5, 2015 at 4:38:49 AM

Latest Report: Jul 5, 2015 at 3:53 AM


Visibility: 10 mi

Pressure: 30.10 "Hg

Humidity: 74%

Dew point: 74 °F

Location of HialeahLocation

Historic Weather in Hialeah — Graph

°F

Hialeah temperature yesterday

Maximum temperature yesterday: 92 °F (at 1:53 PM)
Minimum temperature yesterday: 78 °F (at 3:53 AM)
Average temperature yesterday: 85 °F

Past Weeks' High & Low Weather Summary

 TemperatureHumidityPressure
High95 °F (Jun 30, 12:53 PM)96% (Jun 27, 3:03 PM)30.17 "Hg (Jun 27, 3:03 PM)
Low74 °F (Jun 29, 5:53 PM)44% (Jun 30, 12:53 PM)30.03 "Hg (Jul 3, 6:53 PM)
Average84 °F71%30.10 "Hg
* Reported Jun 20 2:53 AM — Jul 5 2:53 AM, Hialeah, Weather by CustomWeather, © 2015

Note: Actual official high and low records may vary slightly from our data, if they occured in-between our weather recording intervals... More about our weather records

Advertising

Hialeah weather history for previous 24 hours

 ConditionsComfort  
Time TempWeatherWind HumidityBarometerVisibility
2:53 AM
Sun, Jul 5
83 °FClear.7 mph74%30.11 "Hg10 mi
1:53 AM84 °FPassing clouds.6 mph74%30.12 "Hg10 mi
12:53 AM84 °FClear.6 mph74%30.14 "Hg10 mi
11:53 PM
Sat, Jul 4
84 °FPassing clouds.8 mph77%30.14 "Hg10 mi
10:53 PM84 °FPassing clouds.8 mph74%30.13 "Hg10 mi
9:53 PM84 °FPassing clouds.8 mph74%30.11 "Hg10 mi
8:53 PM84 °FSunny.8 mph72%30.10 "Hg10 mi
7:53 PM85 °FSunny.7 mph70%30.10 "Hg10 mi
6:53 PM88 °FSunny.13 mph59%30.08 "Hg10 mi
5:53 PM89 °FPassing clouds.12 mph57%30.08 "Hg10 mi
4:53 PM90 °FSunny.14 mph56%30.08 "Hg10 mi
3:53 PM90 °FPassing clouds.14 mph56%30.09 "Hg10 mi
2:53 PM92 °FPassing clouds.16 mph56%30.10 "Hg10 mi
2:04 PM91 °FSunny.16 mph54%30.11 "Hg10 mi
1:53 PM92 °FThundershowers. Scattered clouds.12 mph54%30.11 "Hg10 mi
12:53 PM90 °FBroken clouds.15 mph61%30.12 "Hg10 mi
11:53 AM90 °FThundershowers. Scattered clouds.9 mph59%30.13 "Hg10 mi
10:53 AM88 °FBroken clouds.9 mph61%30.13 "Hg10 mi
9:53 AM88 °FScattered clouds.9 mph63%30.12 "Hg10 mi
8:53 AM86 °FSunny.9 mph67%30.11 "Hg10 mi
7:53 AM83 °FSunny.No wind77%30.11 "Hg10 mi
6:53 AM79 °FClear.3 mph82%30.09 "Hg10 mi
5:53 AM79 °FClear.3 mph77%30.08 "Hg10 mi
4:53 AM78 °FClear.5 mph76%30.06 "Hg10 mi
Weather by CustomWeather, © 2015

See weather overviewHow to use our weather pages